This is the latest recevied weather packets stored in our database for station/object KD9NSC. If no packets are shown the sender has not sent any weather packets the latest 10 day(s).
| Time | Temp. | Humidity | Pressure | Rain* | Wind** | Luminosity | Snow |
|---|---|---|---|---|---|---|---|
| 1777812767 | 11.11° C | 59% | 1016.7 hPa | 0 mm | - | 36 W/m² | - |
| 1777812463 | 11.11° C | 58% | 1016.5 hPa | 0 mm | - | 35 W/m² | - |
| 1777812161 | 11.67° C | 56% | 1016.5 hPa | 0 mm | - | 41 W/m² | - |
| 1777811859 | 11.67° C | 56% | 1016.7 hPa | 0 mm | - | 65 W/m² | - |
| 1777811557 | 11.67° C | 55% | 1016.7 hPa | 0 mm | - | 71 W/m² | - |
| 1777811252 | 11.11° C | 57% | 1016.7 hPa | 0 mm | - | 58 W/m² | - |
| 1777810950 | 10.56° C | 57% | 1016.8 hPa | 0 mm | - | 53 W/m² | - |
| 1777810646 | 10.56° C | 59% | 1016.7 hPa | 0 mm | - | 44 W/m² | - |
| 1777810343 | 10° C | 59% | 1016.5 hPa | 0 mm | - | 47 W/m² | - |
| 1777810039 | 10° C | 61% | 1016.5 hPa | 0 mm | - | 33 W/m² | - |
| 1777809737 | 9.44° C | 60% | 1016.7 hPa | 0 mm | - | 29 W/m² | - |
| 1777809434 | 9.44° C | 61% | 1016.4 hPa | 0 mm | - | 27 W/m² | - |
| 1777809132 | 8.89° C | 62% | 1016.3 hPa | 0 mm | - | 26 W/m² | - |
| 1777808830 | 7.78° C | 66% | 1016.3 hPa | 0 mm | - | 24 W/m² | - |
| 1777808526 | 7.78° C | 68% | 1016.4 hPa | 0 mm | - | 15 W/m² | - |
| 1777808223 | 7.78° C | 67% | 1016.3 hPa | 0 mm | - | 13 W/m² | - |
| 1777807923 | 7.78° C | 69% | 1016.4 hPa | 0 mm | - | 12 W/m² | - |
| 1777807619 | 7.22° C | 66% | 1016.3 hPa | 0 mm | - | 9 W/m² | - |
| 1777807316 | 7.22° C | 70% | 1016.5 hPa | 0 mm | - | 8 W/m² | - |
| 1777807012 | 6.67° C | 71% | 1016.4 hPa | 0 mm | - | 5 W/m² | - |
| 1777806704 | 6.67° C | 70% | 1016.5 hPa | 0 mm | - | 4 W/m² | - |
| 1777806399 | 6.11° C | 72% | 1016.7 hPa | 0 mm | - | 4 W/m² | - |
| 1777806097 | 6.11° C | 73% | 1016.5 hPa | 0 mm | - | 3 W/m² | - |
| 1777805792 | 5.56° C | 72% | 1016.5 hPa | 0 mm | - | 2 W/m² | - |
| 1777805490 | 5.56° C | 73% | 1016.5 hPa | 0 mm | - | 1 W/m² | - |
* Rain latest hour (hover to see other rain measurements)
** Current wind speed in m/s (hover to see current wind gust speed)